Location: Unspecified
(0.0000°N, 0.0000°E)
Time: 07:20:29
(UTC+00:00)

S-56A Canister/Altair - Pass Details

Date: 31 May 2024
Orbit: 637 x 2489 km, 38.9° (Epoch: 22 June)

Event Time Altitude Azimuth Distance (km) Brightness Sun altitude
Rises 10:35:14 0° 329° (NNW) 4,358 11.5 60.2°
Reaches altitude 10° 10:39:14 10° 341° (NNW) 3,046 11.0 60.8°
Maximum altitude 10:44:45 24° 33° (NNE) 1,793 10.4 61.7°
Drops below altitude 10° 10:49:03 10° 87° (E) 2,305 10.4 62.3°
Sets 10:51:36 0° 102° (ESE) 3,090 10.8 62.7°
